Location: Sungai Apap
(2.6167°N, 113.3833°E)
Time: 15:07:46
(UTC+00:00)

Cosmos 2227 Rocket - Pass Details

Date: 25 May 2024
Orbit: 837 x 845 km, 71.0° (Epoch: 11 June)

Event Time Altitude Azimuth Distance (km) Brightness Sun altitude
Exits shadow 20:29:37 31° 317° (NW) 1,436 3.2 -25.3°
Drops below altitude 10° 20:33:16 10° 351° (N) 2,454 4.8 -24.5°
Sets 20:35:54 0° 360° (N) 3,387 5.7 -23.9°
